Vertical_Velocity
3 -2 -2 -0 -2 8 -7 -0 -2 2 3 -10 -3 1 0 2 -1 -2 0 -2 -0 0 -1 0 0 0 -0 0 0 -1 -0 -1 0 -1 0 0 0 0 1 1 -1 -1 -1 -2 -1
-4 -3 8 -10 6 -0 -6 -2 3 2 6 -14 -2 10 -7 3 -1 -0 -2 -2 -2 -2 -1 -0 -0 -0 -1 -2 -1 -1 -1 -3 -2 -1 -1 0 -1 -1 -1 -2 -1 -1 -3 -2 -1
-3 7 0 4 1 -7 -1 -4 5 -1 4 -8 -5 12 -2 1 -2 -2 -1 0 -1 -1 -3 -1 -1 -0 -1 -3 -1 -1 -3 -3 -1 -1 -2 -2 -2 -2 -1 -3 -2 -2 -2 -1 -1
-3 2 -2 10 -3 -3 -5 -1 6 0 -0 -3 0 1 3 1 -1 -2 -3 -1 -1 -2 -1 -2 -0 -1 -1 -2 -3 -2 -2 -1 -1 -1 -1 -1 -1 -1 -2 -2 -1 -1 -2 -1 -0
-3 3 4 -1 -2 -1 -5 1 1 1 -2 -5 0 4 3 2 -1 -1 -2 -0 0 0 -1 -1 -2 -2 -2 -1 -1 -1 0 0 -2 -1 -1 -2 -2 -2 -2 -1 -2 -1 -1 0 -1
5 -5 7 1 -10 0 1 0 -0 0 -6 -2 1 3 2 1 -1 -1 -0 -1 0 -1 -2 -2 -2 -2 -1 -3 -1 -1 -1 -1 -1 -0 -1 -1 -1 -1 -1 -1 -1 0 1 -1 -3
7 -11 5 3 -1 -4 3 5 -6 -5 -9 2 -0 2 1 -0 -1 1 -0 -1 -2 -4 -1 -0 -2 -1 -2 -3 -3 -1 -2 -1 -1 -1 -0 -1 -1 -1 -0 1 1 1 -0 -1 0
1 -2 3 -2 -5 2 4 2 -2 -12 5 0 1 3 0 -1 -1 0 -1 -0 -2 -1 -1 -2 -2 -2 -3 -3 -2 -1 -1 0 -1 -1 -1 0 2 1 2 2 1 0 -1 -1 0
0 1 4 -14 2 4 3 -4 -2 -11 2 2 3 2 0 -1 -1 -1 -0 -0 -1 -1 -2 -3 -2 -1 -2 -2 -1 -1 4 0 -3 1 -0 2 3 0 1 1 1 -1 -0 -1 -2
-0 1 -10 1 2 2 -0 -1 -7 -5 0 3 3 1 1 -1 -0 0 0 -1 -1 -0 -1 -2 -2 -0 -1 -0 7 1 0 -2 2 -2 -1 -1 4 -3 2 1 -1 1 -1 -1 -0
-3 -6 1 1 1 2 -1 -5 -5 -2 2 2 -0 0 -0 -1 0 0 1 1 0 0 1 -1 0 -0 0 -1 -2 -1 0 1 -1 -1 -4 -2 -1 7 -7 -1 2 -1 -2 -0 -1
-1 -1 0 3 -1 0 -4 -6 -2 1 2 -0 -1 1 -0 -1 0 1 1 1 1 -0 -2 -2 -1 -1 -0 -1 -1 -0 -1 0 -2 1 -4 1 0 -1 -1 0 -3 -3 -3 -1 -1
1 1 0 0 2 -2 -5 -3 2 -1 1 -2 1 1 0 -0 -0 -0 -0 1 1 -0 -2 -1 -2 -1 -0 -2 -2 -2 1 -1 2 -1 -1 -4 -3 -3 -2 -2 0 0 1 -0 -1
1 1 0 1 -0 -3 -2 1 -0 -1 -0 -1 0 -1 -0 -0 -0 -0 -0 -1 -0 -1 -2 -2 -2 -1 -2 -1 -1 -1 -0 0 -1 1 5 -1 -5 -2 -2 -2 -1 -1 -0 -1 -2
1 -1 1 0 -3 -1 0 2 -1 1 5 1 -0 -0 -0 -0 0 -0 -0 -1 -1 -1 -2 -2 -1 -1 -1 -0 -1 -3 0 2 0 0 1 -3 1 -1 -1 -2 1 0 0 0 2
-2 1 -1 -1 -2 0 1 0 -1 -1 2 -1 0 -1 1 -1 -0 -0 -0 -1 -0 -2 -1 -1 -1 -2 -1 -1 0 -2 -3 0 -1 0 3 -3 -3 0 0 1 0 -2 0 -0 -0
-1 -1 -1 -1 -1 0 1 -1 1 1 -1 1 -1 0 0 -1 -0 -0 0 -0 -2 -0 -0 -1 -1 -1 -1 -1 -0 -1 -3 2 2 2 3 -1 -1 -2 -2 -1 1 -1 -2 -1 0
-1 -1 -1 0 -0 -1 1 1 -0 -1 -1 0 -0 -0 -1 -0 -1 -1 0 1 -1 -1 -1 0 1 -1 -1 -1 0 -1 -2 1 2 1 -1 -4 -3 3 -3 -3 -1 -2 -1 -1 -0
-2 3 0 0 -1 -0 1 0 -0 -0 -1 -1 -0 0 -0 -0 -1 -1 -0 -1 -1 0 -0 -1 -1 -1 -2 -2 -0 -1 -2 -2 -1 -4 2 -2 -5 -0 -5 -4 -3 -3 -0 -1 -0
-3 0 1 1 1 -0 0 -3 -0 -0 -0 0 1 1 1 -0 -0 -1 -1 -1 -1 -1 -0 0 -0 -0 -1 -2 -1 -0 -0 -4 -1 2 -1 -2 -5 -9 -3 -3 -3 -3 0 -2 -0
-2 -3 2 1 -0 2 -2 -2 -1 -0 1 -0 -1 1 -0 1 -0 -0 -2 -1 -1 -1 -1 1 -0 -1 -0 -1 -0 -1 -2 -3 -3 -4 3 0 -8 -3 -1 1 -3 -2 -0 -0 0
1 -0 -1 0 -0 -0 -2 -2 1 2 1 0 0 -0 -1 0 0 1 -1 -1 -1 -1 -0 -0 1 1 -1 -0 -0 -1 -2 1 -2 2 -2 -2 -29 -2 0 0 -3 -0 0 0 0
-1 3 1 -1 -2 -1 -0 -1 -1 -1 1 -2 0 -0 0 -0 -1 2 1 0 -1 0 -0 -0 1 1 0 -1 -1 -2 -1 -0 1 2 -5 4 -11 1 4 3 -2 -1 -1 -1 0
-3 -1 -1 -1 -1 -1 1 -3 -1 -1 -2 1 -1 -0 0 0 -0 -1 -1 0 -0 -0 2 1 -1 -2 -2 0 2 -1 1 1 3 2 2 -18 -21 9 6 -6 -0 -1 0 -1 -0
2 -3 -6 -2 -1 2 3 -3 -2 1 1 2 -2 -0 1 -1 -1 -5 1 1 1 2 0 1 -3 -1 1 0 -1 1 3 3 -3 9 -7 -0 -11 3 2 -3 1 1 -0 1 -1
-1 2 2 -1 -1 0 0 -4 -0 2 1 0 -5 5 1 -3 1 -2 -0 0 2 1 1 1 -4 -0 -6 1 1 -5 2 1 2 1 -11 7 -21 8 2 -1 1 0 -1 0 -0
3 2 6 -0 -1 -0 -4 2 -1 2 -2 -3 1 -1 -2 6 1 1 -1 1 -0 -1 1 -1 -0 1 -6 -0 -1 -14 -1 -3 0 0 3 -1 1 -2 1 -0 1 -0 0 0 0
Height
3187 3189 3190 3190 3192 3192 3193 3194 3195 3195 3196 3199 3202 3202 3203 3204 3206 3207 3208 3209 3209 3209 3209 3209 3209 3208 3207 3205 3204 3204 3205 3205 3206 3206 3207 3207 3207 3207 3207 3206 3205 3205 3204 3203 3201
3189 3191 3192 3194 3194 3195 3196 3196 3198 3198 3200 3202 3205 3204 3205 3207 3208 3209 3210 3210 3209 3209 3210 3210 3209 3209 3207 3206 3205 3205 3206 3206 3206 3207 3207 3207 3207 3207 3206 3205 3204 3204 3202 3201 3199
3191 3193 3194 3196 3196 3197 3198 3198 3200 3201 3203 3204 3207 3207 3208 3209 3211 3210 3210 3210 3210 3210 3210 3209 3209 3209 3207 3207 3206 3206 3206 3206 3206 3206 3206 3206 3206 3205 3204 3204 3203 3202 3200 3198 3197
3194 3195 3196 3198 3198 3199 3200 3201 3202 3203 3204 3206 3208 3209 3210 3211 3214 3211 3211 3211 3210 3210 3210 3210 3209 3208 3207 3206 3206 3206 3206 3206 3206 3206 3206 3205 3204 3204 3203 3202 3201 3199 3197 3196 3194
3195 3197 3198 3198 3200 3202 3203 3203 3205 3205 3206 3208 3209 3210 3211 3211 3211 3211 3211 3211 3210 3210 3210 3209 3209 3208 3207 3206 3206 3206 3206 3206 3206 3205 3204 3204 3203 3202 3201 3200 3198 3196 3195 3193 3191
3195 3198 3198 3200 3202 3203 3204 3205 3206 3206 3208 3208 3210 3211 3212 3212 3210 3210 3210 3210 3210 3210 3209 3209 3208 3208 3206 3206 3206 3206 3206 3206 3206 3204 3203 3203 3201 3200 3199 3197 3195 3193 3192 3190 3189
3196 3198 3200 3200 3203 3204 3206 3206 3206 3208 3209 3209 3211 3212 3212 3212 3210 3210 3210 3210 3209 3210 3209 3208 3208 3208 3207 3207 3206 3206 3206 3206 3205 3204 3202 3201 3200 3198 3196 3194 3192 3190 3188 3187 3187
3197 3200 3201 3201 3204 3205 3206 3206 3207 3208 3209 3209 3211 3212 3211 3211 3210 3210 3210 3209 3209 3209 3209 3209 3208 3208 3207 3207 3206 3206 3205 3204 3203 3202 3201 3200 3198 3195 3193 3192 3189 3187 3186 3185 3184
3199 3201 3201 3202 3206 3206 3206 3206 3207 3209 3210 3210 3211 3211 3211 3210 3210 3210 3210 3210 3209 3209 3209 3209 3208 3208 3207 3207 3206 3205 3206 3203 3201 3200 3198 3198 3195 3193 3190 3188 3187 3185 3184 3183 3181
3200 3201 3202 3205 3206 3206 3206 3207 3208 3210 3210 3210 3211 3213 3211 3211 3210 3210 3210 3210 3210 3209 3209 3209 3208 3208 3207 3206 3208 3206 3204 3202 3201 3199 3196 3194 3191 3189 3186 3184 3184 3182 3181 3181 3178
3201 3202 3204 3206 3206 3206 3207 3208 3212 3213 3211 3211 3211 3210 3210 3211 3211 3211 3211 3210 3210 3210 3209 3209 3209 3208 3207 3206 3205 3204 3202 3201 3199 3197 3194 3191 3186 3185 3180 3180 3180 3179 3179 3178 3175
3202 3204 3205 3205 3206 3207 3209 3209 3211 3213 3211 3210 3210 3210 3211 3211 3211 3211 3211 3211 3209 3209 3208 3209 3208 3207 3206 3206 3205 3203 3201 3200 3197 3194 3192 3186 3182 3180 3178 3177 3176 3177 3177 3175 3171
3203 3204 3205 3205 3207 3209 3209 3210 3211 3211 3212 3211 3210 3210 3211 3212 3211 3211 3211 3209 3208 3208 3207 3207 3208 3206 3205 3205 3204 3202 3200 3199 3197 3192 3187 3184 3180 3179 3177 3176 3176 3175 3174 3172 3168
3203 3204 3205 3206 3210 3209 3210 3210 3211 3212 3213 3213 3211 3210 3210 3210 3211 3209 3209 3209 3208 3207 3206 3207 3206 3205 3204 3204 3203 3200 3199 3196 3193 3191 3190 3186 3183 3178 3177 3176 3175 3174 3172 3168 3164
3204 3204 3205 3207 3208 3209 3211 3211 3212 3213 3213 3212 3209 3209 3209 3211 3211 3209 3208 3207 3207 3206 3207 3207 3205 3204 3203 3203 3201 3201 3197 3193 3190 3188 3187 3185 3185 3178 3176 3175 3174 3172 3169 3165 3160
3203 3204 3205 3206 3208 3209 3210 3211 3213 3215 3211 3209 3208 3208 3208 3208 3208 3207 3207 3206 3206 3205 3204 3204 3203 3203 3202 3201 3200 3198 3195 3190 3188 3187 3186 3185 3186 3177 3176 3175 3172 3169 3164 3160 3155
3202 3204 3206 3206 3208 3209 3210 3212 3214 3211 3211 3209 3207 3207 3207 3207 3207 3206 3205 3204 3205 3205 3203 3202 3202 3201 3201 3201 3199 3197 3195 3192 3188 3185 3185 3182 3182 3177 3175 3171 3168 3165 3160 3155 3149
3201 3203 3204 3206 3207 3208 3210 3213 3212 3210 3209 3207 3206 3206 3206 3206 3205 3204 3204 3203 3202 3202 3201 3201 3202 3200 3200 3200 3199 3197 3197 3197 3194 3187 3186 3181 3178 3175 3171 3168 3165 3161 3155 3149 3143
3199 3200 3202 3204 3206 3207 3210 3211 3209 3208 3208 3207 3205 3204 3204 3203 3204 3203 3202 3201 3200 3200 3201 3200 3199 3198 3198 3198 3199 3196 3197 3197 3195 3192 3189 3179 3174 3171 3167 3164 3160 3155 3149 3143 3137
3197 3198 3200 3202 3203 3205 3207 3207 3207 3207 3206 3205 3204 3203 3202 3202 3202 3201 3200 3199 3198 3198 3198 3198 3198 3197 3197 3197 3196 3196 3196 3196 3195 3191 3184 3175 3172 3167 3163 3159 3155 3149 3143 3137 3131
3196 3197 3198 3199 3201 3202 3203 3204 3204 3204 3204 3203 3201 3201 3201 3200 3199 3199 3198 3198 3196 3196 3196 3196 3196 3197 3195 3194 3193 3194 3193 3193 3194 3193 3189 3180 3167 3162 3160 3155 3150 3144 3138 3131 3125
3193 3194 3195 3196 3199 3198 3198 3201 3202 3201 3201 3200 3198 3198 3198 3198 3197 3196 3195 3195 3194 3195 3194 3194 3193 3193 3192 3191 3190 3190 3189 3189 3190 3189 3187 3184 3164 3158 3155 3151 3145 3140 3133 3127 3121
3189 3191 3191 3193 3193 3194 3195 3197 3198 3198 3197 3196 3195 3195 3195 3196 3196 3193 3193 3193 3192 3192 3192 3192 3191 3191 3188 3189 3187 3185 3185 3184 3184 3183 3179 3179 3160 3156 3152 3147 3140 3135 3129 3122 3116
3186 3187 3187 3188 3189 3190 3191 3192 3193 3193 3193 3192 3192 3192 3192 3192 3192 3191 3190 3190 3190 3190 3189 3189 3187 3187 3186 3184 3183 3180 3179 3178 3178 3177 3171 3162 3154 3153 3149 3141 3136 3130 3124 3117 3111
3179 3180 3182 3182 3183 3184 3186 3187 3187 3189 3189 3188 3187 3188 3189 3189 3189 3188 3188 3188 3188 3187 3186 3186 3183 3182 3181 3180 3177 3174 3172 3170 3167 3168 3164 3156 3151 3147 3143 3137 3131 3125 3118 3112 3106
3174 3176 3177 3178 3178 3180 3180 3180 3182 3184 3185 3184 3184 3185 3185 3184 3185 3185 3184 3184 3184 3184 3182 3182 3179 3177 3174 3174 3171 3166 3165 3163 3160 3159 3154 3151 3145 3144 3138 3133 3126 3120 3113 3107 3101
3168 3170 3172 3171 3172 3174 3175 3176 3176 3177 3178 3178 3180 3180 3180 3181 3180 3180 3180 3180 3179 3179 3179 3178 3176 3174 3169 3168 3166 3161 3155 3156 3154 3152 3151 3146 3142 3137 3133 3127 3121 3114 3108 3102 3096